OBJECT C, 100082

Orbit data source: Space-Track

You're viewing an uncataloged RSO

Recently launched and/or uncataloged RSOs may have evolving metadata. Metadata may include the following, but is not limited to: Owner, Manufacturer, Bus, Motor, and Mission.

OBJECT C, 100082 is a satellite owned by Skyroot (IN) in LEO that was launched on Sat, 18 Jul 2026 UTC launched from the Sirharikota (SRI). Unknown objects in Earth's orbit typically refer to objects detected orbiting the Earth but have not yet been identified or cataloged. These objects could be anything from previously untracked satellites, spent rocket stages, debris from satellite collisions, or even natural meteoroids temporarily captured by Earth's gravity.

Loading next visibility...
Identifier
100082, 2026-164C
Orbit
LEO
Country
Flag of ININ / IND
Related business
Flag of INSkyroot Aerospace (IN)
Manufacturer
Skyroot
Mission
Operational spacecraft
Bus & Motor
VIKRAM S4, Unknown motor
Mass
100 kg wet, 100 kg dry
Launch date (UTC)
2026-07-18 (3 weeks ago)
Launch vehicle
Unknown
Launch site
Sirharikota (SRI)
Object type
Unknown
Shape & HBR
CYL, 1.1 m
Radar Cross Section
Medium (>0.1 m² and <1 m²)

Expand to show TLE details & history
Last TLE update: 22 hours ago

TLE from 22 hours ago
0 OBJECT C
1 A0082U 26164C   26219.50000574  .00013018  00000-0  32278-3 0  9998
2 A0082  59.9313 225.6882 0010291 336.8830  23.1793 15.40717449  3100
Epoch: 2026-08-07T12:00Z
TLE epoch observation values (Epoch: 2026-08-07T12:00:00.495Z)
Latitude
-0.00004°
Longitude
89.6613°
Altitude
439.141 km
Speed
7.653 km/s
True Right ascension
15h 02m 45s
True Declination
0° 00' 00"
Sunlit
Object was in daylight at epoch
Visualization orbit readout
Latitude
Unknown
Longitude
Unknown
Altitude
Unknown
Speed
Unknown
Apparent Right ascension
Unknown
Apparent Declination
Unknown
Sunlit
N/A
Visualization observer readout
Local Sidereal Time
00:16:10
Azimuth
Unknown
Elevation
Unknown
Doppler factor
Unknown
Orbital elements
Apogee altitude
450.218 km
Perigee altitude
436.178 km
Semi-major axis
6,821.335 km
Eccentricity
0.00103
Inclination
59.9313°
RAAN
225.6882°
Arg. of periapsis
336.883°
True anomaly
23.22577°
Mean anomaly
23.1793°
Eccentric anomaly
23.20253°
Mean motion
3.85247 °/min
Orbital period
93.45 mins
BSTAR
0.00032278
Loading maneuver chart data...
Computing Atmospheric mass density...
Loading historical data...
Loading historical data...
Loading historical data...
Loading historical data...
Loading historical data...
Loading historical data...
Loading historical data...
Other satellites on launch #164 in the year 2026 (2026-07-18 UTC)

Documentation

Showing up to 5 results
|